sat.trackr.live / text

‹ back to catalog

STARLINK-4275

NORAD 53008 · 2022-076Y

PAYLOAD ACTIVE UNKNOWN

§ Identity

Operator
Country
US
Launch date
2022-07-07
Launch site
AFETR
Launch vehicle
Mass (kg)
RCS (m²)

Purposes: comms

External: N2YO · Heavens-Above · Gunter

§ Orbital elements

Epoch: 2026-09-19T16:57:25.652160Z

Period
93.79 min
Inclination
53.1595°
Eccentricity
0.0001109
Mean motion
15.35396337 rev/d
Perigee alt
459.0 km
Apogee alt
460.5 km
Semi-major
6,837.9 km
B*
5.7745e-5
RAAN
287.3978°
Arg perigee
87.6636°
Mean anomaly
272.4494°
Rev number
23,235

§ Raw data

STARLINK-42751 53008U 22076Y   26262.70654690  .00001634  00000+0  57745-4 0  99932 53008  53.1595 287.3978 0001109  87.6636 272.4494 15.35396337232359

JSON: /api/v1/satellites/53008 · /tle

For live sub-satellite position, see the globe view (requires WebGL).

§ Visibility from observer

Set your observer location to see the next 7 days of passes ≥ 10°. The values pass through the URL so the page stays shareable.

No JS? Fill the form by hand. The geolocation button needs JavaScript.